Preview of NWS' New Version of Forecast
This preview is not operational and should not be used for support decisions.

Regional Weather Roundup (RWR)

Issued by National Weather Service (NWS)

                            
000
ASUS46 KSEW 160910
RWRWA 

WASHINGTON REGIONAL WEATHER ROUNDUP
NATIONAL WEATHER SERVICE SEATTLE WA
200 AM PDT MON SEP 16 2019

NOTE:"FAIR" INDICATES FEW OR NO CLOUDS BELOW 12,000 FEET WITH NO 
SIGNIFICANT WEATHER AND/OR OBSTRUCTIONS TO VISIBILITY.

WAZ507-509-555>559-161000-
SEATTLE, TACOMA, EVERETT, AND VICINITY
  
CITY           SKY/WX    TMP DP  RH WIND       PRES   REMARKS
EVERETT        MOCLDY    55  53  93 S8        29.79S                  
BOEING FIELD   MOCLDY    56  52  86 SE5       29.79R                  
RENTON         PTCLDY    55  54  96 CALM      29.78S FOG              
SEATAC AIRPORT PTCLDY    55  51  86 S6        29.79R                  
JBLM-MCCHORD   PTCLDY    51  51 100 S3        29.79R                  
PUYALLUP       CLOUDY    52  52 100 CALM      29.79S                  
BREMERTON      FOG       54  54 100 SW3       29.79S VSB 1/2          
JBLM-FT LEWIS  PTCLDY    51  51 100 SE3       29.78R                  
TACOMA NARROWS PTCLDY    54  52  93 SW6       29.79R                  
$$
 
WAZ001-503-506-510-514-515-161000-
NORTH INTERIOR
  
CITY           SKY/WX    TMP DP  RH WIND       PRES   REMARKS
BELLINGHAM     CLOUDY    56  52  86 CALM      29.77S                  
FRIDAY HARBOR  CLOUDY    56  54  93 CALM      29.78S                  
EASTSOUND      CLOUDY    55  54  94 CALM      29.77S                  
PORT ANGELES   MOCLDY    49  48  97 SW3       29.78R                  
EDIZ HOOK      FAIR      50  49  98 SE3       29.77S                  
PORT TOWNSEND  FOG       50  50 100 CALM      29.77S VSB 1/4          
NAS WHIDBEY    MOCLDY    59  54  83 CALM      29.81S                  
ARLINGTON      CLOUDY    57  54  89 CALM      29.79R                  
BURLINGTON     CLOUDY    55  55 100 CALM      29.78S                  
$$
 
WAZ020-022-039-040-504-511-512-161000-
SOUTHWEST INTERIOR
  
CITY           SKY/WX    TMP DP  RH WIND       PRES   REMARKS
SHELTON        FOG       52  49  89 NW3       29.76S VSB 1/4          
OLYMPIA        MOCLDY    53  52  96 SW5       29.78S                  
CHEHALIS       MOCLDY    54  54 100 S3        29.79S                  
KELSO          CLOUDY    55  54  96 NE3       29.80S                  
VANCOUVER      CLOUDY    59  55  87 S3        29.80R                  
SCAPPOOSE, OR  CLOUDY    54  54 100 CALM      29.79S                  
PORTLAND, OR   CLOUDY    59  55  87 S6        29.80S                  
$$
 
WAZ021-516-517-161000-
WASHINGTON COAST
  
CITY           SKY/WX    TMP DP  RH WIND       PRES   REMARKS
FORKS          LGT RAIN  53  52  96 E6        29.75S                  
HOQUIAM        MOCLDY    57  53  86 SE7       29.77S                  
ASTORIA, OR    LGT RAIN  53  52  96 CALM      29.77R                  
$$
 
WAZ019-023-024-040-567>569-161000-
CASCADE MOUNTAINS AND COLUMBIA GORGE
  
CITY           SKY/WX    TMP DP  RH WIND       PRES   REMARKS
STAMPEDE PASS  NOT AVBL                                               
TROUTDALE, OR  CLOUDY    59  54  83 SW3       29.80S                  
HOOD RIVER, OR CLOUDY    55  52  88 CALM      29.81S                  
THE DALLES, OR CLOUDY    56  54  93 SW3       29.79S                  
$$

WAZ026-027-041>044-520-521-161000-
EAST SLOPES
  
CITY           SKY/WX    TMP DP  RH WIND       PRES   REMARKS
OMAK           MOCLDY    58  50  75 E3        29.74S                  
WENATCHEE      CLOUDY    54  51  90 W6        29.75R                  
ELLENSBURG     LGT RAIN  55  49  80 CALM      29.77S                  
YAKIMA         CLOUDY    54  51  90 CALM      29.77F                  
SUNNYSIDE ARPT CLOUDY    54  52  94 CALM      29.76F                  
YAKIMA TC      PTSUNNY   52  49  89 E5        29.75F                  
$$

WAZ028-034-035-161000-
COLUMBIA BASIN
  
CITY           SKY/WX    TMP DP  RH WIND       PRES   REMARKS
EPHRATA        CLOUDY    56  52  86 CALM      29.73F                  
MOSES LAKE     CLOUDY    59  50  72 E6        29.75S                  
PASCO          CLOUDY    62  49  62 W9        29.77S                  
RICHLAND ARPT  LGT RAIN  60  52  72 SW10      29.76                   
HERMISTON, OR  CLOUDY    59  49  69 CALM      29.77F                  
$$

WAZ036>038-161000-
NORTHEAST WASHINGTON
  
CITY           SKY/WX    TMP DP  RH WIND       PRES   REMARKS
SPOKANE GEIGER MOCLDY    58  44  60 SW9       29.78S                  
SPOKANE FELTS  CLOUDY    60  46  59 W6        29.78R                  
FAIRCHILD AFB  CLOUDY    55  47  75 SW6       29.78R                  
COEURDALENE,ID CLOUDY    58  47  66 SW8       29.78R                  
DEER PARK      CLOUDY    56  47  71 S6        29.78R                  
$$

WAZ029>033-161000-
SOUTHEAST WASHINGTON
  
CITY           SKY/WX    TMP DP  RH WIND       PRES   REMARKS
PULLMAN        CLOUDY    56  44  64 W7        29.81S                  
LEWISTON, ID   CLOUDY    64  44  48 CALM      29.77R                  
WALLA WALLA    CLOUDY    58  47  66 CALM      29.78S                  
PENDLETON, OR  CLOUDY    54  45  71 N3        29.78F                  
$$